TimeCET,TemperatureF,Dew PointF,Humidity,Sea Level PressureIn,VisibilityMPH,Wind Direction,Wind SpeedMPH,Gust SpeedMPH,PrecipitationIn,Events,Conditions,WindDirDegrees,DateUTC
12:00 AM,19.4,15.8,86,29.59,3.7,NNW,4.6,-,N/A,,Mostly Cloudy,330,2013-01-18 23:00:00
1:00 AM,19.4,15.8,86,29.56,6.2,NNW,4.6,-,N/A,,Overcast,330,2013-01-19 00:00:00
2:00 AM,17.6,15.8,93,29.56,6.2,NNW,4.6,-,N/A,,Overcast,330,2013-01-19 01:00:00
3:00 AM,17.6,14.0,86,29.53,6.2,NNW,4.6,-,N/A,,Overcast,330,2013-01-19 02:00:00
4:00 AM,17.6,14.0,86,29.53,6.2,NNW,6.9,-,N/A,,Mostly Cloudy,330,2013-01-19 03:00:00
5:00 AM,17.6,14.0,86,29.50,6.2,NNW,4.6,-,N/A,,Mostly Cloudy,330,2013-01-19 04:00:00
6:00 AM,15.8,14.0,93,29.50,6.2,North,4.6,-,N/A,,Scattered Clouds,350,2013-01-19 05:00:00
7:00 AM,15.8,14.0,93,29.50,6.2,NW,3.5,-,N/A,,Overcast,320,2013-01-19 06:00:00
8:00 AM,15.8,14.0,93,29.50,5.0,NNW,3.5,-,N/A,,Overcast,340,2013-01-19 07:00:00
9:00 AM,17.6,14.0,86,29.47,4.3,NNW,3.5,-,N/A,,Overcast,330,2013-01-19 08:00:00
10:00 AM,17.6,14.0,86,29.47,4.3,Variable,2.3,-,N/A,,Overcast,0,2013-01-19 09:00:00
11:00 AM,19.4,15.8,86,29.47,5.0,Variable,2.3,-,N/A,,Overcast,0,2013-01-19 10:00:00
12:00 PM,21.2,15.8,80,29.47,5.6,ENE,6.9,-,N/A,,Overcast,60,2013-01-19 11:00:00
1:00 PM,21.2,15.8,80,29.47,5.6,ENE,5.8,-,N/A,,Overcast,60,2013-01-19 12:00:00
2:00 PM,23.0,15.8,74,29.47,5.6,ENE,3.5,-,N/A,,Mostly Cloudy,60,2013-01-19 13:00:00
3:00 PM,23.0,15.8,74,29.47,5.0,Variable,2.3,-,N/A,,Overcast,0,2013-01-19 14:00:00
4:00 PM,21.2,17.6,86,29.47,3.7,SE,4.6,-,N/A,,Overcast,140,2013-01-19 15:00:00
5:00 PM,19.4,15.8,86,29.47,3.1,SE,6.9,-,N/A,,Overcast,130,2013-01-19 16:00:00
6:00 PM,19.4,15.8,86,29.47,3.1,SE,3.5,-,N/A,,Overcast,140,2013-01-19 17:00:00
7:00 PM,19.4,15.8,86,29.50,3.1,ESE,3.5,-,N/A,,Overcast,120,2013-01-19 18:00:00
7:29 PM,19.4,15.8,86,29.50,3.1,ESE,3.5,-,N/A,,Overcast,120,2013-01-19 18:29:00
8:00 PM,19.4,15.8,86,29.50,3.1,East,5.8,-,N/A,,Overcast,100,2013-01-19 19:00:00
9:00 PM,19.4,15.8,86,29.50,3.1,NE,5.8,-,N/A,,Overcast,50,2013-01-19 20:00:00
10:00 PM,19.4,17.6,93,29.50,3.1,Variable,2.3,-,N/A,,Overcast,0,2013-01-19 21:00:00
11:00 PM,19.4,17.6,93,29.50,3.1,East,3.5,-,N/A,,Overcast,100,2013-01-19 22:00:00